Location: Koslow
(50.3020°N, 18.5663°E)
Time: 14:40:33
(UTC+00:00)

X-37B - Pass Details

Date: 02 August 2021
Orbit: 381 x 393 km, 45.0° (Epoch: 29 August)

Event Time Altitude Azimuth Distance (km) Brightness Sun altitude
Exits shadow 02:35:52 - 207° (SSW) 1,699 3.3 -6.1°
Reaches altitude 10° 02:36:56 10° 194° (SSW) 1,393 2.9 -6.0°
Maximum altitude 02:38:51 15° 156° (SSE) 1,126 2.8 -5.7°
Drops below altitude 10° 02:40:47 10° 118° (ESE) 1,398 3.8 -5.5°
Sets 02:43:26 0° 94° (E) 2,255 5.3 -5.1°
